DECAYED

STARLINK-1799, 46699 (Decayed)

Orbit data source: Space-Track

STARLINK-1799, 46699 was a payload satellite owned by SpaceX/Seattle (US) in LEO that was launched on Sun, 18 Oct 2020 UTC via an FALCON 9 launch vehicle from the Air Force Eastern Test Range (AFETR). Payload-class satellites include a variety of spacecraft equipped with specific instruments for various scientific and technological missions. These include communications satellites like Starlink; space stations such as the ISS; scientific satellites like the Hubble; Earth observation satellites from companies like Planet Labs, Umbra, and HawkEye 360; GPS; miniature CubeSats for education and research; and military/defense satellites.

Not visible in the next 10 days
Identifier
46699, 2020-073AF
Orbit
Decayed
Country
Flag of USUS
Related business
Manufacturer
SpaceX/Seattle
Mission
Decayed Commercial Communications
Bus & Motor
STARLINK, Unknown motor
Mass
260 kg wet, ~248 kg dry
Launch date (UTC)
2020-10-18 (6 years ago)
Launch vehicle
FALCON 9
Launch site
Air Force Eastern Test Range (AFETR)
Object type
Payload
Rocket body
Debris
Shape & HBR
Box + 1 Pan, 10.1 m
Radar Cross Section
13.562 m², Large (>1 m²)

Expand to show TLE details & history
Last TLE update: 5 months ago

TLE from 5 months ago
0 STARLINK-1799
1 46699U 20073AF  26122.90781348  .07111201  12295-4  85109-3 0  9991
2 46699  53.0238 278.5693 0011596 292.6224  67.3593 16.35459310306410
Epoch: 2026-05-02T21:47Z
TLE epoch observation values (Epoch: 2026-05-02T21:47:15.084Z)
Latitude
-0.00006°
Longitude
90.93743°
Altitude
175.915 km
Speed
7.804 km/s
True Right ascension
18h 34m 16s
True Declination
0° 00' 00"
Sunlit
Object was in full shadow at epoch
Visualization orbit readout
Latitude
Unknown
Longitude
Unknown
Altitude
Unknown
Speed
Unknown
Apparent Right ascension
Unknown
Apparent Declination
Unknown
Sunlit
N/A
Visualization observer readout
Local Sidereal Time
00:33:27
Azimuth
Unknown
Elevation
Unknown
Doppler factor
Unknown
Orbital elements
Apogee altitude
185.803 km
Perigee altitude
170.597 km
Semi-major axis
6,556.337 km
Eccentricity
0.00116
Inclination
53.0238°
RAAN
278.5693°
Arg. of periapsis
292.6224°
True anomaly
67.48201°
Mean anomaly
67.3593°
Eccentric anomaly
67.42065°
Mean motion
4.08838 °/min
Orbital period
88.05 mins
BSTAR
0.00085109
Loading maneuver chart data...
Computing Atmospheric mass density...

Documentation

Showing up to 5 results
|